Point Salines, Grenada

5:12 PM AST on March 28, 2017 (GMT -0400)
Point Salines International

Weather History for TGPY - November, 2012

Change the Weather History Date:

Friday, November 9, 2012

  Actual Average Record
Temperature  
Mean Temperature 81 °F -  
Max Temperature 86 °F 84 °F 88 °F (2013)
Min Temperature 76 °F 75 °F 74 °F (2015)
Cooling Degree Days 16    
Growing Degree Days 31 (Base 50)    
Moisture  
Dew Point 77 °F    
Average Humidity 83    
Maximum Humidity 94    
Minimum Humidity 74    
Precipitation  
Precipitation 0.02 in - - ()
Sea Level Pressure  
Sea Level Pressure 29.84 in    
Wind  
Wind Speed 7 mph ()    
Max Wind Speed 17 mph    
Max Gust Speed -    
Visibility 7.4 miles    
Events Rain    
Averages and records for this station are not official NWS values.
T = Trace of Precipitation, MM = Missing Value Source: Averaged Metar Reports

Daily Weather History Graph

Daily Weather History Graph

Search for Another Location

Airport or City:

Trip Planner

Search our weather history database for the weather conditions in past years. The results will help you decide how hot, cold, wet, or windy it might be!

Date:

Astronomy

Nov. 09, 2012 Rise Set
Actual Time 6:02 AM AST 5:39 PM AST
Civil Twilight 5:40 AM AST 6:01 PM AST
Nautical Twilight 5:14 AM AST 6:27 PM AST
Astronomical Twilight 4:49 AM AST 6:52 PM AST
Moon 1:44 AM AST (11/9) 2:08 PM AST (11/9)
Length of Visible Light 12h 21m
Length of Day
11h 37m
Waning Crescent, 23% of the Moon is Illuminated
Nov 9
Waning Crescent
Nov 13
New
Nov 20
First Quarter
Nov 28
Full
Dec 6
Last Quarter

Hourly Weather History & Observations

Time (AST) Temp. Heat Index Dew Point Humidity Pressure Visibility Wind Dir Wind Speed Gust Speed Precip Events Conditions
12:00 AM 78.8 °F - 77.0 °F 94% 29.86 in 6.2 mi Calm Calm - N/A   Partly Cloudy
1:00 AM 80.6 °F 87.1 °F 77.0 °F 89% 29.83 in 6.2 mi East 6.9 mph - N/A   Partly Cloudy
2:00 AM 81 °F - 77 °F 84% 29.81 in 12 mi East 11.5 mph - -   Widespread Dust
2:00 AM 80.6 °F 87.1 °F 77.0 °F 89% 29.80 in 6.2 mi East 11.5 mph - N/A   Partly Cloudy
3:00 AM 80.6 °F 87.1 °F 77.0 °F 89% 29.80 in 6.2 mi ENE 9.2 mph - N/A   Partly Cloudy
4:00 AM 80.6 °F 87.1 °F 77.0 °F 89% 29.80 in 6.2 mi ENE 5.8 mph - N/A   Partly Cloudy
5:00 AM 81 °F - 76 °F 80% 29.82 in 12 mi NE 4.6 mph - -   Widespread Dust
5:00 AM 80.6 °F 86.2 °F 75.2 °F 84% 29.80 in 6.2 mi NE 4.6 mph - N/A   Scattered Clouds
6:00 AM - - - N/A% - 6.2 mi ESE 17.3 mph - N/A   Scattered Clouds
7:00 AM 80.6 °F 87.1 °F 77.0 °F 89% 29.86 in 6.2 mi East 11.5 mph - N/A   Scattered Clouds
8:00 AM 84 °F - 77 °F 75% 29.87 in 9 mi East 13.8 mph - -   Partly Cloudy
8:00 AM 84.2 °F 94.1 °F 77.0 °F 79% 29.86 in 6.2 mi East 13.8 mph - N/A   Scattered Clouds
9:00 AM 80.6 °F 87.1 °F 77.0 °F 89% 29.89 in 6.2 mi ESE 13.8 mph - N/A   Mostly Cloudy
10:00 AM 84.2 °F 94.1 °F 77.0 °F 79% 29.92 in 6.2 mi ESE 13.8 mph - N/A Rain Light Rain Showers
11:00 AM 84 °F - 79 °F 80% 29.90 in 7 mi SE 16.1 mph - - Rain Light Rain Showers
11:00 AM 84.2 °F 96.1 °F 78.8 °F 84% 29.89 in 6.2 mi SE 16.1 mph - N/A   Mostly Cloudy
12:00 PM 86.0 °F 99.3 °F 78.8 °F 79% 29.86 in 6.2 mi SSE 10.4 mph - N/A   Scattered Clouds
1:00 PM 84.2 °F 94.1 °F 77.0 °F 79% 29.83 in 6.2 mi SE 13.8 mph - N/A Rain Light Rain Showers
2:00 PM 84 °F - 77 °F 74% 29.81 in 16 mi ESE 8.1 mph - -  
2:00 PM 84.2 °F 94.1 °F 77.0 °F 79% 29.80 in 6.2 mi ESE 8.1 mph - N/A   Scattered Clouds
3:00 PM 86.0 °F 99.3 °F 78.8 °F 79% 29.77 in 6.2 mi ESE 9.2 mph - N/A   Partly Cloudy
4:00 PM 86.0 °F 96.9 °F 77.0 °F 74% 29.80 in 6.2 mi Calm Calm - N/A   Scattered Clouds
6:00 PM 82.4 °F 89.5 °F 75.2 °F 79% 29.80 in 6.2 mi East 6.9 mph - N/A   Mostly Cloudy
7:00 PM 80.6 °F 86.2 °F 75.2 °F 84% 29.80 in 6.2 mi Variable 2.3 mph - N/A   Mostly Cloudy
8:00 PM 80.6 °F 86.2 °F 75.2 °F 84% 29.83 in 6.2 mi ENE 5.8 mph - N/A   Scattered Clouds
9:00 PM 80.6 °F 86.2 °F 75.2 °F 84% 29.86 in 6.2 mi Calm Calm - N/A   Scattered Clouds
10:00 PM 80.6 °F 86.2 °F 75.2 °F 84% 29.86 in 6.2 mi East 4.6 mph - N/A   Scattered Clouds
11:00 PM 81 °F - 77 °F 85% 29.85 in 16 mi East 3.5 mph - -   Scattered Clouds
11:00 PM 80.6 °F 87.1 °F 77.0 °F 89% 29.83 in 6.2 mi East 3.5 mph - N/A   Scattered Clouds